Satellite-Ground Cal/Val Site Overpasses Predictions

Prediction of Satellite NPP Overpassing Cal/Val Site: Antarctic Dome C

Ground Cal/Val Site Location: Latitude: -75.10, Longitude: 123.35; Satellite-Ground Site NADIR distance within 100 km.

Table of predicted overpasses for the next 14.0 days since TLE Epoch: 2/1/2019
Interval Starting Time Ending Time Minimum Distance Time Minimum Distance (km)
1 02/04/2019 14:55:05 02/04/2019 14:55:33 02/04/2019 14:55:19 22.51
2 02/05/2019 14:36:22 02/05/2019 14:36:37 02/05/2019 14:36:30 84.57
3 02/06/2019 07:37:54 02/06/2019 07:38:21 02/06/2019 07:38:08 38.07
4 02/07/2019 07:19:08 02/07/2019 07:19:28 02/07/2019 07:19:18 71.95
5 02/09/2019 15:01:22 02/09/2019 15:01:46 02/09/2019 15:01:34 59.49
6 02/10/2019 14:42:31 02/10/2019 14:42:56 02/10/2019 14:42:43 49.82
7 02/11/2019 07:44:12 02/11/2019 07:44:32 02/11/2019 07:44:22 73.07
8 02/12/2019 07:25:18 02/12/2019 07:25:46 02/12/2019 07:25:32 34.75
9 02/14/2019 15:07:45 02/14/2019 15:07:51 02/14/2019 15:07:48 97.13


NCC Satellite Cal/Val Overpasses Prediction Service
